Madawaska, ME

3:04 AM EST on February 10, 2016 (GMT -0500)
Northern Aroostook Regional

Weather History for KFVE - February, 2011

Change the Weather History Date:

Wednesday, February 16, 2011

  Actual Average Record
Temperature  
Mean Temperature 9 °F 13 °F  
Max Temperature 20 °F 22 °F 39 °F (2002)
Min Temperature -2 °F 5 °F -18 °F (2003)
Degree Days  
Heating Degree Days 56    
Month to date heating degree days 890  
Since 1 July heating degree days 5983  
Cooling Degree Days 0    
Month to date cooling degree days 0  
Year to date cooling degree days 0  
Moisture  
Dew Point 1 °F    
Average Humidity 65    
Maximum Humidity 75    
Minimum Humidity 53    
Precipitation  
Precipitation T in 0.03 in 0.08 in (2005)
Month to date precipitation 0.39 0.36  
Year to date precipitation 0.95 2.12  
Sea Level Pressure  
Sea Level Pressure 30.08 in    
Wind  
Wind Speed 8 mph (South)    
Max Wind Speed 23 mph    
Max Gust Speed 29 mph    
Visibility 9 miles    
Events      
T = Trace of Precipitation, MM = Missing Value Source: NWS Daily Summary

Daily Weather History Graph

Daily Weather History Graph

Search for Another Location

Airport or City:

Trip Planner

Search our weather history database for the weather conditions in past years. The results will help you decide how hot, cold, wet, or windy it might be!

Date:

Astronomy

Feb. 16, 2011 Rise Set
Actual Time 6:37 AM EST 4:58 PM EST
Civil Twilight 6:05 AM EST 5:29 PM EST
Nautical Twilight 5:29 AM EST 6:05 PM EST
Astronomical Twilight 4:54 AM EST 6:41 PM EST
Moon 3:11 PM EST (2/16) 5:17 AM EST (2/16)
Length of Visible Light 11h 24m
Length of Day
10h 21m
Waxing Gibbous, 96% of the Moon is Illuminated
Feb 16
Waxing Gibbous
Feb 18
Full
Feb 24
Last Quarter
Mar 4
New
Mar 12
First Quarter

Hourly Weather History & Observations

Time (EST) Temp. Windchill Dew Point Humidity Pressure Visibility Wind Dir Wind Speed Gust Speed Precip Events Conditions
12:53 AM 1.0 °F -17.3 °F -9.0 °F 63% 30.16 in 10.0 mi NW 13.8 mph 21.9 mph N/A   Clear
1:53 AM 1.0 °F -16.6 °F -9.9 °F 60% 30.17 in 10.0 mi NW 12.7 mph - N/A   Clear
2:53 AM 1.0 °F -19.3 °F -8.0 °F 66% 30.16 in 10.0 mi NW 17.3 mph 26.5 mph N/A   Clear
3:53 AM 1.0 °F -15.8 °F -8.0 °F 66% 30.19 in 10.0 mi NNW 11.5 mph - N/A   Clear
4:53 AM -0.4 °F -14.7 °F -7.6 °F 72% 30.12 in 10.0 mi NW 8.1 mph - N/A   Clear
5:53 AM -0.9 °F -14.1 °F -8.0 °F 72% 30.22 in 10.0 mi NW 6.9 mph - N/A   Clear
6:53 AM -0.0 °F -7.9 °F -7.1 °F 72% 30.24 in 10.0 mi NW 3.5 mph - N/A   Clear
7:53 AM -0.9 °F - -7.1 °F 75% 30.25 in 10.0 mi Calm Calm - N/A   Clear
8:53 AM 1.0 °F -10.3 °F -6.0 °F 72% 30.25 in 10.0 mi South 5.8 mph - N/A   Clear
9:53 AM 5.0 °F -6.9 °F -4.0 °F 66% 30.23 in 10.0 mi South 6.9 mph - N/A   Clear
10:53 AM 7.0 °F -1.7 °F -2.9 °F 64% 30.21 in 10.0 mi South 4.6 mph - N/A   Clear
11:53 AM 12.0 °F - -0.9 °F 56% 30.16 in 9.0 mi Calm Calm - 0.00 in   Clear
12:53 PM 12.9 °F 2.6 °F -0.9 °F 54% 30.13 in 10.0 mi SW 6.9 mph - N/A   Clear
1:53 PM 15.1 °F 4.2 °F 1.9 °F 56% 30.10 in 10.0 mi SSE 8.1 mph - N/A   Mostly Cloudy
2:00 PM 15.8 °F 6.1 °F 3.2 °F 58% 30.04 in 1.8 mi SSE 6.9 mph - N/A   Haze
2:02 PM 15.8 °F 8.6 °F 3.2 °F 58% 30.03 in 0.8 mi SE 4.6 mph - N/A   Haze
2:10 PM 15.8 °F 7.2 °F 1.4 °F 53% 30.03 in 1.5 mi SE 5.8 mph - N/A   Haze
2:17 PM 15.8 °F 6.1 °F 3.2 °F 58% 30.03 in 10.0 mi SE 6.9 mph - N/A   Overcast
2:53 PM 16.0 °F 5.3 °F 3.9 °F 59% 30.07 in 10.0 mi SE 8.1 mph - N/A   Overcast
3:53 PM 17.1 °F 5.8 °F 3.9 °F 56% 30.08 in 10.0 mi SE 9.2 mph - N/A   Mostly Cloudy
4:53 PM 15.1 °F 4.2 °F 3.9 °F 61% 30.06 in 10.0 mi SE 8.1 mph - N/A   Mostly Cloudy
5:53 PM 15.1 °F 4.2 °F 5.0 °F 64% 30.04 in 10.0 mi SSE 8.1 mph - N/A   Overcast
6:53 PM 15.1 °F 2.5 °F 6.1 °F 68% 30.01 in 10.0 mi SSE 10.4 mph - N/A   Overcast
7:53 PM 15.1 °F 6.4 °F 7.0 °F 70% 29.99 in 10.0 mi SSE 5.8 mph - N/A   Overcast
8:42 PM 17.6 °F 5.7 °F 8.6 °F 68% 29.89 in 10.0 mi South 10.4 mph - N/A   Overcast
8:53 PM 18.0 °F 6.9 °F 10.0 °F 71% 29.96 in 10.0 mi South 9.2 mph - N/A   Overcast
9:53 PM 19.0 °F 13.9 °F 10.9 °F 71% 29.95 in 10.0 mi SSE 3.5 mph - N/A   Overcast
10:44 PM 19.4 °F 11.5 °F 10.4 °F 68% 29.88 in 10.0 mi SSW 5.8 mph - N/A   Overcast
10:53 PM 19.0 °F 12.3 °F 10.9 °F 71% 29.94 in 10.0 mi SSW 4.6 mph - N/A   Overcast
11:02 PM 19.4 °F 10.4 °F 10.4 °F 68% 29.88 in 10.0 mi SSW 6.9 mph - N/A   Overcast
11:53 PM 19.9 °F 11.1 °F 12.0 °F 71% 29.93 in 10.0 mi SW 6.9 mph - N/A   Overcast